Miscellaneous Local Product
Issued by NWS Hastings, NE

Home | Current Version | Previous Version | Text Only | Print | Product List | Glossary On
Versions: 1 2 3 4 5 6 7 8 9 10 11 12 13 14 15 16 17 18 19 20 21 22 23 24 25 26 27 28 29 30 31 32 33 34 35 36 37 38 39 40 41 42 43 44 45 46 47 48 49 50
000
AXUS43 KGID 300702
MISGRI

GID CWA HOURLY WEATHER ROUNDUP
NATIONAL WEATHER SERVICE HASTINGS NE
200 AM CDT WED JUL 30 2014

NOTE: "FAIR" INDICATES FEW OR NO CLOUDS BELOW 12,000 FEET WITH NO
SIGNIFICANT WEATHER AND/OR OBSTRUCTIONS TO VISIBILITY.

...SOUTH CENTRAL NEBRASKA...

CITY           SKY/WX    TMP DP  RH WIND       PRES   REMARKS
GRAND ISLAND   CLOUDY    64  60  87 E5        30.16F
HASTINGS       CLOUDY    67  54  63 E6        30.16S
KEARNEY        CLOUDY    64  57  77 SE5       30.18R
ORD            CLOUDY    59  57  93 N3        30.16F
YORK           CLOUDY    64  59  82 CALM      30.16S
AURORA         CLOUDY    64  61  91 E3        30.16S
LEXINGTON      CLOUDY    67  60  78 E5        30.19R
HOLDREGE       CLOUDY    64  59  83 E5        30.17S
HEBRON         CLOUDY    64  56  74 CALM      30.15S

...NEBRASKA PANHANDLE...

CITY           SKY/WX    TMP DP  RH WIND       PRES   REMARKS
CHADRON        CLOUDY    56  53  90 CALM      30.23F
ALLIANCE       CLOUDY    63  54  72 NE5       30.25S
SCOTTSBLUFF    LGT RAIN  65  61  87 N3        30.26S
SIDNEY         CLOUDY    63  61  93 SW6       30.26F

...WESTERN AND NORTH CENTRAL NEBRASKA...

CITY           SKY/WX    TMP DP  RH WIND       PRES   REMARKS
VALENTINE      MOCLDY    54  50  86 W3        30.20S
AINSWORTH      MOCLDY    58  51  78 CALM      30.19S
ONEILL         PTCLDY    61  54  78 S3        30.18S
BROKEN BOW     CLOUDY    63  59  87 CALM      30.18S
IMPERIAL       HVY RAIN  63  60  90 E13       30.22S FOG
NORTH PLATTE   CLOUDY    65  60  84 E5        30.20S
MCCOOK         HVY RAIN  64  61  90 NE14      30.18S FOG

...EASTERN NEBRASKA...

CITY           SKY/WX    TMP DP  RH WIND       PRES   REMARKS
NORFOLK        PTCLDY    57  53  86 CALM      30.16S
SO SIOUX CITY  CLEAR     55  53  93 CALM      30.14S
TEKAMAH        CLEAR     56  52  86 NW3       30.14F
ALBION         PTCLDY    55  53  91 CALM      30.17S
OMAHA EPPLEY   PTCLDY    59  56  89 N3        30.13F
OFFUTT AFB     CLEAR     54  54 100 CALM      30.12F
MILLARD        CLEAR     60  58  92 CALM      30.13F
LINCOLN        CLOUDY    65  57  75 N5        30.14F
NEBRASKA CITY  PTCLDY    62  56  82 CALM      30.13F
BEATRICE       CLOUDY    63  57  82 CALM      30.13S
FALLS CITY     PTCLDY    63  57  81 CALM      30.11F

...NORTHERN KANSAS...

CITY           SKY/WX    TMP DP  RH WIND       PRES   REMARKS
GOODLAND       LGT RAIN  64  63  96 CALM      30.17F
HILL CITY      CLOUDY    70  58  65 E10       30.13F
NORTON         PTSUNNY   68  52  56 E12G17    30.14S
PHILLIPSBURG   CLOUDY    70  55  60 NE12      30.15S
SMITH CENTER   RAIN      63  59  88 E10       30.17R
HAYS           CLOUDY    72  55  56 E12       30.11F
RUSSELL        CLOUDY    70  58  65 E8        30.10S
CONCORDIA      HVY RAIN  64  63  96 SE6       30.13F FOG
SALINA         CLOUDY    73  56  54 SE6       30.10F
TOPEKA         CLOUDY    71  62  73 CALM      30.10F



USA.gov is the U.S. government's official web portal to all federal, state and local government web resources and services.